Regional Weather Roundup
Issued by NWS Sterling, VA

Home | Current Version | Previous Version | Graphics & Text | Print | Product List | Glossary On
Versions: 1 2 3 4 5 6 7 8 9 10 11 12 13 14 15 16 17 18 19 20 21 22 23 24 25 26 27
000
ASUS41 KLWX 241310
RWRLWX

REGIONAL WEATHER ROUNDUP
NATIONAL WEATHER SERVICE BALTIMORE MD/WASHINGTON DC
900 AM EDT FRI OCT 24 2014

Note: "FAIR" indicates few or no clouds below 12,000 feet
with no significant weather and/or obstructions to visibility.
 TC=TEMPERATURE CELSIUS

 * =Non NWS site. Station does not report precipitation (e.g. rain,
    snow, etc.), thunder, or fog.

DCZ001-MDZ009-015-VAZ040>042-051-053>054-241400-
WASHINGTON METRO

CITY           SKY/WX    TMP DP  RH WIND       PRES   REMARKS
WASHINGTON NAT MOSUNNY   58  42  55 NW18G26   29.98S
DULLES         MOSUNNY   54  42  64 NW18G25   29.99S
ANDREWS AFB    SUNNY     55  43  64 NW17G26   29.96S
FT BELVOIR     SUNNY     56  44  63 NW18G24   29.99R
QUANTICO       MOSUNNY   56  42  59 NW14G23   30.01R
COLLEGE PARK*  SUNNY     55  43  62 NW8       29.97R
LEESBURG*      SUNNY     55  46  71 NW12G21   30.02R
GAITHERSBURG*  SUNNY     52  43  71 NW14G22   30.01S

$$

MDZ006>007-011-014-241400-
BALTIMORE METRO

CITY           SKY/WX    TMP DP  RH WIND       PRES   REMARKS
BWI AIRPORT    MOSUNNY   56  43  61 W9G17     29.95R
MD SCIENCE CTR   N/A     57  42  57 MISG      29.96R
MARTIN STATE   MOSUNNY   57  48  72 W12       29.95
ANNAPOLIS      SUNNY     56  43  61 W8        29.95R
FORT MEADE*    SUNNY     52  43  71 W9        29.98S

$$

MDZ012-015-019>023-241400-
MARYLAND EASTERN SHORE

CITY           SKY/WX    TMP DP  RH WIND       PRES   REMARKS
OCEAN CITY     CLOUDY    54  45  71 W6        29.91R
SALISBURY      PTSUNNY   58  45  62 W10G18    29.92R
BAY BRIDGE AP*   N/A     55  43  62 W13       29.94R
CAMBRIDGE*     MOSUNNY   59  45  58 NW9G18    29.94R

$$

MDZ017>025-241400-
SOUTHERN MARYLAND

CITY           SKY/WX    TMP DP  RH WIND       PRES   REMARKS
PATUXENT RIVER PTSUNNY   55  43  63 NW14      29.96R
ST INIGOES     SUNNY     56  42  59 NW8       29.96R
LEONARDTOWN*   SUNNY     54  43  66 W7        29.98S

$$

MDZ003>005-241400-
NORTH CENTRAL MARYLAND

CITY           SKY/WX    TMP DP  RH WIND       PRES   REMARKS
FREDERICK*     SUNNY     61  45  55 NW8       30.01R
HAGERSTOWN APT SUNNY     53  42  66 NW14      30.00R
WESTMINSTER*   SUNNY     54  43  66 NW8G18    29.96R

$$

MDZ501>502-241400-
WESTERN MARYLAND

CITY           SKY/WX    TMP DP  RH WIND       PRES   REMARKS
OAKLAND*       PTSUNNY   39 N/A N/A NW5       30.08R
CUMBERLAND*    MOSUNNY   54  41  62 CALM      30.10S

$$

VAZ025>031-241400-
SHENANDOAH VALLEY

CITY           SKY/WX    TMP DP  RH WIND       PRES   REMARKS
WINCHESTER*    SUNNY     54  37  54 W10G16    30.03R
FRONT ROYAL*   FAIR      52  43  71 CALM      30.03R
LURAY*         FAIR      52  45  76 W6        30.06R
NEW MARKET*    FAIR      45  41  86 CALM      30.06R
STAUNTON*      PTSUNNY   45  40  84 CALM      30.08R
WAYNESBORO*    FAIR      47  39  73 SW6       30.06R

$$

WVZ021-048>050-054>055-241400-
EASTERN WEST VIRGINIA PANHANDLE

CITY           SKY/WX    TMP DP  RH WIND       PRES   REMARKS
MARTINSBURG    SUNNY     54  40  59 W7        30.03R
PETERSBURG*    PTSUNNY   42  40  92 CALM      30.09S

$$

VAZ036>039-050-241400-
CENTRAL FOOTHILLS

CITY           SKY/WX    TMP DP  RH WIND       PRES   REMARKS
CHARLOTTESVILL CLOUDY    52  41  66 CALM      30.02R
CULPEPER*      MOSUNNY   55  43  62 CALM      30.02R
ORANGE*        PTSUNNY   46  45  93 CALM      30.02S
GORDONSVILLE*  FAIR      50  43  78 CALM      30.01R
WARRENTON*     FAIR      57  48  72 NW10      30.00R

$$

VAZ055>057-241400-
NORTH AND CENTRAL PIEDMONT

CITY           SKY/WX    TMP DP  RH WIND       PRES   REMARKS
FREDERICKSBRG* PTSUNNY   56  44  64 NW6       30.00R
STAFFORD*      MOSUNNY   53  43  68 NW9       30.04R

$$

NCZ024-NYZ072-PAZ021-071-VAZ022-071-241400-
OTHER REGIONAL OBSERVATIONS

CITY           SKY/WX    TMP DP  RH WIND       PRES   REMARKS
NEW YORK CITY  PTSUNNY   53  43  68 NW7       29.85R
PHILADELPHIA   MOSUNNY   58  44  60 NW14      29.87R
PITTSBURGH     CLOUDY    41  38  89 CALM      30.10S
ROANOKE        CLOUDY    49  41  74 W8        30.10R
RICHMOND       PTSUNNY   54  43  66 NW7       30.01R
RALEIGH        PTSUNNY   48  43  82 CALM      30.06R

$$

ANZ530>537-241400-
MARINE OBSERVATIONS

STATION/POSITION TIME  TEMP    WIND        PRES
                       AIR SEA DIR/SP/G
                 (UTC) (F)     (DEG/KT/KT) (MB)
THOMAS PT LIGHT  1300   55 61  300/ 17/ 20 1014.9R
BALT KEY BRIDGE  1300   56     260/ 10/ 12 1013.7R
COVE POINT       1300   55     320/ 15/ 19 1014.0S
LEWISETTA        1300   57 59  340/ 13/ 17 1014.3F
SOLOMONS ISLAND  1300      63                N/A
PINEY POINT      1300          330/ 23/ 26   N/A

$$




USA.gov is the U.S. government's official web portal to all federal, state and local government web resources and services.